This demonstration page uses our WeatherBlox Daily Observations layout. Learn more.

Left ArrowRight Arrow

39.29038, -76.61219

Hourly Observations for July 2, 2020

Temp ( °F °C ) Dew Point ( °F °C ) Humidity (%) Winds ( mph kmh ) Pressure ( in mb ) Visibility ( mi km ) Precip ( " mm )
12:54 am 00:54 Mostly Clear 71 21.7 68 20 90 90 Calm 29.87 1012 10 16 0.00 0.00
1:54 am 01:54 Mostly Clear 70 21.1 67 19.4 90 90 WNW 5 7 29.86 1011 10 16 0.00 0.00
2:54 am 02:54 Mostly Clear 69 20.6 66 18.9 90 90 Calm 29.84 1011 10 16 0.00 0.00
3:54 am 03:54 Mostly Clear 69 20.6 66 18.9 90 90 Calm 29.85 1011 10 16 0.00 0.00
4:54 am 04:54 Mostly Clear 68 20 65 18.3 90 90 Calm 29.85 1011 10 16 0.00 0.00
5:54 am 05:54 Mostly Sunny 69 20.6 65 18.3 87 87 Calm 29.86 1011 10 16 0.00 0.00
6:54 am 06:54 Mostly Sunny 71 21.7 67 19.4 87 87 Calm 29.87 1012 10 16 0.00 0.00
7:54 am 07:54 Sunny 76 24.4 66 18.9 72 72 NW 5 7 29.88 1012 10 16 0.00 0.00
8:54 am 08:54 Mostly Sunny 80 26.7 64 17.8 58 58 N 8 13 29.89 1012 10 16 0.00 0.00
9:54 am 09:54 Mostly Sunny 83 28.3 64 17.8 53 53 NNW 8 13 29.89 1012 10 16 0.00 0.00
10:54 am 10:54 Mostly Sunny 84 28.9 64 17.8 51 51 NNW 10 17 29.89 1012 10 16 0.00 0.00
11:54 am 11:54 Partly Cloudy 86 30 63 17.2 46 46 VRB 6 9 29.89 1012 10 16 0.00 0.00
12:54 pm 12:54 Partly Cloudy 88 31.1 63 17.2 43 43 NNE 9 15 29.89 1012 10 16 0.00 0.00
1:54 pm 13:54 Partly Cloudy 90 32.2 62 16.7 39 39 VRB 6 9 29.88 1012 10 16 0.00 0.00
2:54 pm 14:54 Partly Cloudy 89 31.7 64 17.8 43 43 WNW 8 13 29.87 1011 10 16 0.00 0.00
3:54 pm 15:54 Partly Cloudy 91 32.8 63 17.2 39 39 NNW 8 13 29.85 1011 10 16 0.00 0.00
4:54 pm 16:54 Mostly Sunny 91 32.8 64 17.8 41 41 NW 9 15 29.84 1011 10 16 0.00 0.00
5:54 pm 17:54 Mostly Sunny 91 32.8 63 17.2 39 39 N 6 9 29.83 1010 10 16 0.00 0.00
6:54 pm 18:54 Mostly Sunny 89 31.7 64 17.8 43 43 WNW 7 11 29.83 1010 10 16 0.00 0.00
7:54 pm 19:54 Partly Cloudy 86 30 64 17.8 48 48 WNW 6 9 29.84 1011 10 16 0.00 0.00
8:54 pm 20:54 Partly Cloudy 83 28.3 65 18.3 55 55 W 3 6 29.84 1011 10 16 0.00 0.00
9:54 pm 21:54 Mostly Clear 78 25.6 66 18.9 67 67 WSW 3 6 29.86 1011 10 16 0.00 0.00
10:54 pm 22:54 Mostly Clear 77 25 67 19.4 71 71 W 3 6 29.86 1011 10 16 0.00 0.00
11:54 pm 23:54 Mostly Clear 77 25 66 18.9 69 69 W 3 6 29.86 1011 10 16 0.00 0.00

Powered by AerisWeather